Location: Eppenbrunn
(49.1158°N, 7.5601°E)
Time: 17:12:42
(UTC+00:00)

Cosmos 2333 Rocket - Pass Details

Date: 09 April 2020
Orbit: 841 x 860 km, 70.8° (Epoch: 28 May)

Event Time Altitude Azimuth Distance (km) Brightness Sun altitude
Rises 23:35:10 0° 333° (NNW) 3,408 6.2 -32.8°
Reaches altitude 10° 23:37:42 10° 338° (NNW) 2,470 5.3 -32.8°
Enters shadow 23:42:31 49° 29° (NNE) 1,079 2.9 -32.8°
